owner,sensor,date,latitude,longitude,vertical_datum,direction_of_sea_water_velocity,sea_water_speed,upward_sea_water_velocity,qcFlag 
TABS,ioos:station:wmo:42050:1,2001-07-09T00:00:00Z,28.8425,-94.2433,2.0,231.2713521,36.57123596,-99999.0,'11111222,11111222,99999999' 
TABS,ioos:station:wmo:42050:1,2001-07-09T02:30:00Z,28.8425,-94.2433,2.0,231.2713521,36.57123596,-99999.0,'11111222,11111222,99999999' 
TABS,ioos:station:wmo:42050:1,2001-07-09T03:00:00Z,28.8425,-94.2433,2.0,232.3724417,38.13133095,-99999.0,'11111222,11111222,99999999' 
TABS,ioos:station:wmo:42050:1,2001-07-09T03:30:00Z,28.8425,-94.2433,2.0,250.7953152,36.26826988,-99999.0,'11111222,11111222,99999999' 
TABS,ioos:station:wmo:42050:1,2001-07-09T04:00:00Z,28.8425,-94.2433,2.0,271.1358889,37.84743188,-99999.0,'11111222,11111222,99999999' 
TABS,ioos:station:wmo:42050:1,2001-07-09T04:30:00Z,28.8425,-94.2433,2.0,281.252786,37.10323032,-99999.0,'11111222,11111222,99999999' 
TABS,ioos:station:wmo:42050:1,2001-07-09T05:00:00Z,28.8425,-94.2433,2.0,285.3365444,37.2048384,-99999.0,'11111222,11111222,99999999' 
TABS,ioos:station:wmo:42050:1,2001-07-09T05:30:00Z,28.8425,-94.2433,2.0,301.500722,36.43990258,-99999.0,'11111222,11111222,99999999' 
TABS,ioos:station:wmo:42050:1,2001-07-09T06:00:00Z,28.8425,-94.2433,2.0,307.0418858,37.38416777,-99999.0,'11111222,11111222,99999999' 
TABS,ioos:station:wmo:42050:1,2001-07-09T06:30:00Z,28.8425,-94.2433,2.0,317.2147148,38.24768359,-99999.0,'11111222,11111222,99999999' 
TABS,ioos:station:wmo:42050:1,2001-07-09T07:00:00Z,28.8425,-94.2433,2.0,321.0136453,34.22135152,-99999.0,'11111222,11111222,99999999' 
TABS,ioos:station:wmo:42050:1,2001-07-09T07:30:00Z,28.8425,-94.2433,2.0,332.1364522,32.95021851,-99999.0,'11111222,11111222,99999999' 
TABS,ioos:station:wmo:42050:1,2001-07-09T08:00:00Z,28.8425,-94.2433,2.0,342.2299277,28.07975249,-99999.0,'11111222,11111222,99999999' 
TABS,ioos:station:wmo:42050:1,2001-07-09T08:30:00Z,28.8425,-94.2433,2.0,348.81486,25.25981789,-99999.0,'11111222,11111222,99999999' 
TABS,ioos:station:wmo:42050:1,2001-07-09T09:00:00Z,28.8425,-94.2433,2.0,2.583225087,23.96434852,-99999.0,'11111222,11111222,99999999' 
TABS,ioos:station:wmo:42050:1,2001-07-09T09:30:00Z,28.8425,-94.2433,2.0,7.935580223,21.22322549,-99999.0,'11111222,11111222,99999999' 
TABS,ioos:station:wmo:42050:1,2001-07-09T10:00:00Z,28.8425,-94.2433,2.0,28.17132172,19.46591123,-99999.0,'11111222,11111222,99999999' 
TABS,ioos:station:wmo:42050:1,2001-07-09T10:30:00Z,28.8425,-94.2433,2.0,36.34758367,21.05687536,-99999.0,'11111222,11111222,99999999' 
TABS,ioos:station:wmo:42050:1,2001-07-09T11:00:00Z,28.8425,-94.2433,2.0,48.65370386,24.85582427,-99999.0,'11111222,11111222,99999999' 
TABS,ioos:station:wmo:42050:1,2001-07-09T11:30:00Z,28.8425,-94.2433,2.0,59.72622812,26.06452954,-99999.0,'11111222,11111222,99999999' 
TABS,ioos:station:wmo:42050:1,2001-07-09T12:00:00Z,28.8425,-94.2433,2.0,67.17733246,25.42015932,-99999.0,'11111222,11111222,99999999' 
TABS,ioos:station:wmo:42050:1,2001-07-09T12:30:00Z,28.8425,-94.2433,2.0,73.73583166,28.63600007,-99999.0,'11111222,11111222,99999999' 
TABS,ioos:station:wmo:42050:1,2001-07-09T13:00:00Z,28.8425,-94.2433,2.0,79.21109051,28.9008685,-99999.0,'11111222,11111222,99999999' 
TABS,ioos:station:wmo:42050:1,2001-07-09T13:30:00Z,28.8425,-94.2433,2.0,92.01275662,31.31932311,-99999.0,'11111222,11111222,99999999' 
TABS,ioos:station:wmo:42050:1,2001-07-09T14:00:00Z,28.8425,-94.2433,2.0,94.85980918,33.64094083,-99999.0,'11111222,11111222,99999999' 
TABS,ioos:station:wmo:42050:1,2001-07-09T14:30:00Z,28.8425,-94.2433,2.0,105.1132051,34.71055459,-99999.0,'11111222,11111222,99999999' 
TABS,ioos:station:wmo:42050:1,2001-07-09T15:00:00Z,28.8425,-94.2433,2.0,112.0064265,35.28048327,-99999.0,'11111222,11111222,99999999' 
TABS,ioos:station:wmo:42050:1,2001-07-09T15:30:00Z,28.8425,-94.2433,2.0,122.8347729,39.39364923,-99999.0,'11111222,11111222,99999999' 
TABS,ioos:station:wmo:42050:1,2001-07-09T16:00:00Z,28.8425,-94.2433,2.0,135.7589977,40.563205,-99999.0,'11111222,11111222,99999999' 
TABS,ioos:station:wmo:42050:1,2001-07-09T16:30:00Z,28.8425,-94.2433,2.0,140.0789189,47.0446862,-99999.0,'11111222,11111222,99999999' 
TABS,ioos:station:wmo:42050:1,2001-07-09T17:00:00Z,28.8425,-94.2433,2.0,141.2693844,50.63469561,-99999.0,'11111222,11111222,99999999' 
TABS,ioos:station:wmo:42050:1,2001-07-09T17:30:00Z,28.8425,-94.2433,2.0,146.3826749,47.97328527,-99999.0,'11111222,11111222,99999999' 
TABS,ioos:station:wmo:42050:1,2001-07-09T18:00:00Z,28.8425,-94.2433,2.0,153.1980207,47.61523811,-99999.0,'11111222,11111222,99999999' 
TABS,ioos:station:wmo:42050:1,2001-07-09T18:30:00Z,28.8425,-94.2433,2.0,157.0900606,50.01525567,-99999.0,'11111222,11111222,99999999' 
TABS,ioos:station:wmo:42050:1,2001-07-09T19:00:00Z,28.8425,-94.2433,2.0,162.6465139,48.24598014,-99999.0,'11111222,11111222,99999999' 
TABS,ioos:station:wmo:42050:1,2001-07-09T19:30:00Z,28.8425,-94.2433,2.0,167.3901132,46.86027956,-99999.0,'11111222,11111222,99999999' 
TABS,ioos:station:wmo:42050:1,2001-07-09T20:00:00Z,28.8425,-94.2433,2.0,176.9294986,45.55539156,-99999.0,'11111222,11111222,99999999' 
TABS,ioos:station:wmo:42050:1,2001-07-09T20:30:00Z,28.8425,-94.2433,2.0,178.2469797,39.55850983,-99999.0,'11111222,11111222,99999999' 
TABS,ioos:station:wmo:42050:1,2001-07-09T21:00:00Z,28.8425,-94.2433,2.0,177.2235385,38.19482949,-99999.0,'11111222,11111222,99999999' 
TABS,ioos:station:wmo:42050:1,2001-07-09T21:30:00Z,28.8425,-94.2433,2.0,179.625607,38.28081634,-99999.0,'11111222,11111222,99999999' 
TABS,ioos:station:wmo:42050:1,2001-07-09T22:00:00Z,28.8425,-94.2433,2.0,186.360311,34.21058462,-99999.0,'11111222,11111222,99999999' 
TABS,ioos:station:wmo:42050:1,2001-07-09T22:30:00Z,28.8425,-94.2433,2.0,192.2197644,30.99221999,-99999.0,'11111222,11111222,99999999' 
TABS,ioos:station:wmo:42050:1,2001-07-09T23:00:00Z,28.8425,-94.2433,2.0,198.5359558,30.41799632,-99999.0,'11111222,11111222,99999999' 
TABS,ioos:station:wmo:42050:1,2001-07-09T23:30:00Z,28.8425,-94.2433,2.0,205.7449536,34.69391013,-99999.0,'11111222,11111222,99999999' 
TABS,ioos:station:wmo:42050:1,2001-07-10T00:00:00Z,28.8425,-94.2433,2.0,214.0269106,36.29466214,-99999.0,'11111222,11111222,99999999' 
TABS,ioos:station:wmo:42050:1,2001-07-10T00:30:00Z,28.8425,-94.2433,2.0,219.3213384,35.01805534,-99999.0,'11111222,11111222,99999999' 
TABS,ioos:station:wmo:42050:1,2001-07-10T01:00:00Z,28.8425,-94.2433,2.0,229.7887544,34.386445,-99999.0,'11111222,11111222,99999999' 
TABS,ioos:station:wmo:42050:1,2001-07-10T01:30:00Z,28.8425,-94.2433,2.0,223.7003142,32.11797783,-99999.0,'11111222,11111222,99999999' 
TABS,ioos:station:wmo:42050:1,2001-07-10T02:00:00Z,28.8425,-94.2433,2.0,238.8221312,29.41907205,-99999.0,'11111222,11111222,99999999' 
TABS,ioos:station:wmo:42050:1,2001-07-10T02:30:00Z,28.8425,-94.2433,2.0,255.4106945,25.64691015,-99999.0,'11111222,11111222,99999999' 
TABS,ioos:station:wmo:42050:1,2001-07-10T03:00:00Z,28.8425,-94.2433,2.0,261.3900858,25.18378248,-99999.0,'11111222,11111222,99999999' 
TABS,ioos:station:wmo:42050:1,2001-07-10T03:30:00Z,28.8425,-94.2433,2.0,276.4753999,27.22365516,-99999.0,'11111222,11111222,99999999' 
TABS,ioos:station:wmo:42050:1,2001-07-10T04:00:00Z,28.8425,-94.2433,2.0,285.973907,33.5764203,-99999.0,'11111222,11111222,99999999' 
TABS,ioos:station:wmo:42050:1,2001-07-10T04:30:00Z,28.8425,-94.2433,2.0,292.3777678,34.17338292,-99999.0,'11111222,11111222,99999999' 
TABS,ioos:station:wmo:42050:1,2001-07-10T05:00:00Z,28.8425,-94.2433,2.0,303.4854809,35.67022428,-99999.0,'11111222,11111222,99999999' 
TABS,ioos:station:wmo:42050:1,2001-07-10T05:30:00Z,28.8425,-94.2433,2.0,304.6051107,36.48450767,-99999.0,'11111222,11111222,99999999' 
TABS,ioos:station:wmo:42050:1,2001-07-10T06:00:00Z,28.8425,-94.2433,2.0,314.9274823,33.37546704,-99999.0,'11111222,11111222,99999999' 
TABS,ioos:station:wmo:42050:1,2001-07-10T06:30:00Z,28.8425,-94.2433,2.0,322.3475976,35.7193337,-99999.0,'11111222,11111222,99999999' 
TABS,ioos:station:wmo:42050:1,2001-07-10T07:00:00Z,28.8425,-94.2433,2.0,328.4711271,35.45391375,-99999.0,'11111222,11111222,99999999' 
TABS,ioos:station:wmo:42050:1,2001-07-10T07:30:00Z,28.8425,-94.2433,2.0,334.2593,35.13673434,-99999.0,'11111222,11111222,99999999' 
TABS,ioos:station:wmo:42050:1,2001-07-10T08:00:00Z,28.8425,-94.2433,2.0,347.8165824,35.11083166,-99999.0,'11111222,11111222,99999999' 
TABS,ioos:station:wmo:42050:1,2001-07-10T08:30:00Z,28.8425,-94.2433,2.0,358.7580884,34.59813001,-99999.0,'11111222,11111222,99999999' 
TABS,ioos:station:wmo:42050:1,2001-07-10T09:00:00Z,28.8425,-94.2433,2.0,6.037720987,34.70248694,-99999.0,'11111222,11111222,99999999' 
TABS,ioos:station:wmo:42050:1,2001-07-10T09:30:00Z,28.8425,-94.2433,2.0,14.27457541,36.17692635,-99999.0,'11111222,11111222,99999999' 
TABS,ioos:station:wmo:42050:1,2001-07-10T10:00:00Z,28.8425,-94.2433,2.0,28.71489935,40.77432648,-99999.0,'11111222,11111222,99999999' 
TABS,ioos:station:wmo:42050:1,2001-07-10T10:30:00Z,28.8425,-94.2433,2.0,38.80020136,44.65333582,-99999.0,'11111222,11111222,99999999' 
TABS,ioos:station:wmo:42050:1,2001-07-10T11:00:00Z,28.8425,-94.2433,2.0,46.45631184,46.18899003,-99999.0,'11111222,11111222,99999999' 
TABS,ioos:station:wmo:42050:1,2001-07-10T11:30:00Z,28.8425,-94.2433,2.0,53.29959883,49.37821584,-99999.0,'11111222,11111222,99999999' 
TABS,ioos:station:wmo:42050:1,2001-07-10T12:00:00Z,28.8425,-94.2433,2.0,58.71291254,52.25988136,-99999.0,'11111222,11111222,99999999' 
TABS,ioos:station:wmo:42050:1,2001-07-10T12:30:00Z,28.8425,-94.2433,2.0,67.3948145,51.22538628,-99999.0,'11111222,11111222,99999999' 
TABS,ioos:station:wmo:42050:1,2001-07-10T13:00:00Z,28.8425,-94.2433,2.0,73.73581608,51.34480013,-99999.0,'11111222,11111222,99999999' 
TABS,ioos:station:wmo:42050:1,2001-07-10T13:30:00Z,28.8425,-94.2433,2.0,79.86124853,49.99064012,-99999.0,'11111222,11111222,99999999' 
TABS,ioos:station:wmo:42050:1,2001-07-10T14:00:00Z,28.8425,-94.2433,2.0,89.76412854,53.44045284,-99999.0,'11111222,11111222,99999999' 
TABS,ioos:station:wmo:42050:1,2001-07-10T14:30:00Z,28.8425,-94.2433,2.0,97.17584485,51.7150626,-99999.0,'11111222,11111222,99999999' 
TABS,ioos:station:wmo:42050:1,2001-07-10T15:00:00Z,28.8425,-94.2433,2.0,104.632763,56.60603236,-99999.0,'11111222,11111222,99999999' 
TABS,ioos:station:wmo:42050:1,2001-07-10T15:30:00Z,28.8425,-94.2433,2.0,110.4654685,59.26034762,-99999.0,'11111222,11111222,99999999' 
TABS,ioos:station:wmo:42050:1,2001-07-10T16:00:00Z,28.8425,-94.2433,2.0,117.5454817,57.75714848,-99999.0,'11111222,11111222,99999999' 
TABS,ioos:station:wmo:42050:1,2001-07-10T16:30:00Z,28.8425,-94.2433,2.0,129.2162208,55.15224202,-99999.0,'11111222,11111222,99999999' 
TABS,ioos:station:wmo:42050:1,2001-07-10T17:00:00Z,28.8425,-94.2433,2.0,136.4049779,52.48310395,-99999.0,'11111222,11111222,99999999' 
TABS,ioos:station:wmo:42050:1,2001-07-10T17:30:00Z,28.8425,-94.2433,2.0,138.7777173,52.05009606,-99999.0,'11111222,11111222,99999999' 
TABS,ioos:station:wmo:42050:1,2001-07-10T18:00:00Z,28.8425,-94.2433,2.0,148.4289796,46.1271341,-99999.0,'11111222,11111222,99999999' 
TABS,ioos:station:wmo:42050:1,2001-07-10T18:30:00Z,28.8425,-94.2433,2.0,153.0018441,44.38721663,-99999.0,'11111222,11111222,99999999' 
TABS,ioos:station:wmo:42050:1,2001-07-10T19:00:00Z,28.8425,-94.2433,2.0,156.2954252,43.28160002,-99999.0,'11111222,11111222,99999999' 
TABS,ioos:station:wmo:42050:1,2001-07-10T19:30:00Z,28.8425,-94.2433,2.0,162.1180024,39.308943,-99999.0,'11111222,11111222,99999999' 
TABS,ioos:station:wmo:42050:1,2001-07-10T20:00:00Z,28.8425,-94.2433,2.0,156.3427182,40.19812558,-99999.0,'11111222,11111222,99999999' 
TABS,ioos:station:wmo:42050:1,2001-07-10T20:30:00Z,28.8425,-94.2433,2.0,170.7718794,39.78488783,-99999.0,'11111222,11111222,99999999' 
TABS,ioos:station:wmo:42050:1,2001-07-10T21:00:00Z,28.8425,-94.2433,2.0,185.3346824,33.23396155,-99999.0,'11111222,11111222,99999999' 
TABS,ioos:station:wmo:42050:1,2001-07-10T21:30:00Z,28.8425,-94.2433,2.0,199.9777504,38.40081379,-99999.0,'11111222,11111222,99999999' 
TABS,ioos:station:wmo:42050:1,2001-07-10T22:00:00Z,28.8425,-94.2433,2.0,205.8015236,37.26514323,-99999.0,'11111222,11111222,99999999' 
TABS,ioos:station:wmo:42050:1,2001-07-10T22:30:00Z,28.8425,-94.2433,2.0,204.4621444,33.39803737,-99999.0,'11111222,11111222,99999999' 
TABS,ioos:station:wmo:42050:1,2001-07-10T23:00:00Z,28.8425,-94.2433,2.0,211.4119276,32.8669956,-99999.0,'11111222,11111222,99999999' 
TABS,ioos:station:wmo:42050:1,2001-07-10T23:30:00Z,28.8425,-94.2433,2.0,215.8938571,32.88476851,-99999.0,'11111222,11111222,99999999' 
TABS,ioos:station:wmo:42050:1,2001-07-11T00:00:00Z,28.8425,-94.2433,2.0,225.0618945,32.56228647,-99999.0,'11111222,11111222,99999999' 
TABS,ioos:station:wmo:42050:1,2001-07-11T00:30:00Z,28.8425,-94.2433,2.0,224.820765,29.43699883,-99999.0,'11111222,11111222,99999999' 
TABS,ioos:station:wmo:42050:1,2001-07-11T01:00:00Z,28.8425,-94.2433,2.0,228.5140065,30.56914294,-99999.0,'11111222,11111222,99999999' 
TABS,ioos:station:wmo:42050:1,2001-07-11T01:30:00Z,28.8425,-94.2433,2.0,237.046998,31.03249909,-99999.0,'11111222,11111222,99999999' 
TABS,ioos:station:wmo:42050:1,2001-07-11T02:00:00Z,28.8425,-94.2433,2.0,249.5988041,28.94555234,-99999.0,'11111222,11111222,99999999' 
TABS,ioos:station:wmo:42050:1,2001-07-11T02:30:00Z,28.8425,-94.2433,2.0,262.5239531,27.36257481,-99999.0,'11111222,11111222,99999999' 
TABS,ioos:station:wmo:42050:1,2001-07-11T03:00:00Z,28.8425,-94.2433,2.0,281.0591721,24.60692789,-99999.0,'11111222,11111222,99999999' 
TABS,ioos:station:wmo:42050:1,2001-07-11T03:30:00Z,28.8425,-94.2433,2.0,295.6579177,23.71871202,-99999.0,'11111222,11111222,99999999' 
TABS,ioos:station:wmo:42050:1,2001-07-11T04:00:00Z,28.8425,-94.2433,2.0,319.6312857,24.34739,-99999.0,'11111222,11111222,99999999' 
TABS,ioos:station:wmo:42050:1,2001-07-11T04:30:00Z,28.8425,-94.2433,2.0,322.7447477,24.66255867,-99999.0,'11111222,11111222,99999999' 
TABS,ioos:station:wmo:42050:1,2001-07-11T05:00:00Z,28.8425,-94.2433,2.0,334.1672463,27.65347356,-99999.0,'11111222,11111222,99999999' 
TABS,ioos:station:wmo:42050:1,2001-07-11T05:30:00Z,28.8425,-94.2433,2.0,341.1875635,29.73870542,-99999.0,'11111222,11111222,99999999' 
TABS,ioos:station:wmo:42050:1,2001-07-11T06:00:00Z,28.8425,-94.2433,2.0,343.1089436,36.86023603,-99999.0,'11111222,11111222,99999999' 
TABS,ioos:station:wmo:42050:1,2001-07-11T06:30:00Z,28.8425,-94.2433,2.0,341.5190613,39.18063297,-99999.0,'11111222,11111222,99999999' 
TABS,ioos:station:wmo:42050:1,2001-07-11T07:00:00Z,28.8425,-94.2433,2.0,353.5283469,42.76251279,-99999.0,'11111222,11111222,99999999' 
TABS,ioos:station:wmo:42050:1,2001-07-11T07:30:00Z,28.8425,-94.2433,2.0,355.0892907,46.84195769,-99999.0,'11111222,11111222,99999999' 
TABS,ioos:station:wmo:42050:1,2001-07-11T08:00:00Z,28.8425,-94.2433,2.0,359.9748022,45.10000443,-99999.0,'11111222,11144222,99999999' 
TABS,ioos:station:wmo:42050:1,2001-07-11T08:30:00Z,28.8425,-94.2433,2.0,7.351365732,45.5645147,-99999.0,'11111222,11111222,99999999' 
TABS,ioos:station:wmo:42050:1,2001-07-11T09:00:00Z,28.8425,-94.2433,2.0,18.92688249,52.31864868,-99999.0,'11111222,11111222,99999999' 
TABS,ioos:station:wmo:42050:1,2001-07-11T09:30:00Z,28.8425,-94.2433,2.0,25.73403502,56.72606896,-99999.0,'11111222,11111222,99999999' 
TABS,ioos:station:wmo:42050:1,2001-07-11T10:00:00Z,28.8425,-94.2433,2.0,33.24032529,60.40316631,-99999.0,'11111222,11111222,99999999' 
TABS,ioos:station:wmo:42050:1,2001-07-11T10:30:00Z,28.8425,-94.2433,2.0,38.56809925,62.36338669,-99999.0,'11111222,11111222,99999999' 
TABS,ioos:station:wmo:42050:1,2001-07-11T11:00:00Z,28.8425,-94.2433,2.0,46.43079295,64.85483868,-99999.0,'11111222,11111222,99999999' 
TABS,ioos:station:wmo:42050:1,2001-07-11T11:30:00Z,28.8425,-94.2433,2.0,48.62585935,59.82076312,-99999.0,'11111222,11111222,99999999' 
TABS,ioos:station:wmo:42050:1,2001-07-11T12:00:00Z,28.8425,-94.2433,2.0,53.61946486,58.55213489,-99999.0,'11111222,11111222,99999999' 
TABS,ioos:station:wmo:42050:1,2001-07-11T12:30:00Z,28.8425,-94.2433,2.0,65.06073862,55.32917675,-99999.0,'11111222,11111222,99999999' 
TABS,ioos:station:wmo:42050:1,2001-07-11T13:00:00Z,28.8425,-94.2433,2.0,73.08597344,56.71329297,-99999.0,'11111222,11111222,99999999' 
TABS,ioos:station:wmo:42050:1,2001-07-11T13:30:00Z,28.8425,-94.2433,2.0,84.06276181,55.58818759,-99999.0,'11111222,11111222,99999999' 
TABS,ioos:station:wmo:42050:1,2001-07-11T14:00:00Z,28.8425,-94.2433,2.0,91.52862306,55.47974405,-99999.0,'11111222,11111222,99999999' 
TABS,ioos:station:wmo:42050:1,2001-07-11T14:30:00Z,28.8425,-94.2433,2.0,101.2494949,52.0806298,-99999.0,'11111222,11111222,99999999' 
TABS,ioos:station:wmo:42050:1,2001-07-11T15:00:00Z,28.8425,-94.2433,2.0,107.7484863,50.94478678,-99999.0,'11111222,11111222,99999999' 
TABS,ioos:station:wmo:42050:1,2001-07-11T15:30:00Z,28.8425,-94.2433,2.0,114.8554047,50.81713983,-99999.0,'11111222,11111222,99999999' 
TABS,ioos:station:wmo:42050:1,2001-07-11T16:00:00Z,28.8425,-94.2433,2.0,123.8646306,49.13557164,-99999.0,'11111222,11111222,99999999' 
TABS,ioos:station:wmo:42050:1,2001-07-11T16:30:00Z,28.8425,-94.2433,2.0,130.1556391,51.32838299,-99999.0,'11111222,11111222,99999999' 
TABS,ioos:station:wmo:42050:1,2001-07-11T17:00:00Z,28.8425,-94.2433,2.0,128.4867995,48.1251639,-99999.0,'11111222,11111222,99999999' 
TABS,ioos:station:wmo:42050:1,2001-07-11T17:30:00Z,28.8425,-94.2433,2.0,144.2158959,47.59454801,-99999.0,'11111222,11111222,99999999' 
TABS,ioos:station:wmo:42050:1,2001-07-11T18:00:00Z,28.8425,-94.2433,2.0,148.6615464,46.43423414,-99999.0,'11111222,11111222,99999999' 
TABS,ioos:station:wmo:42050:1,2001-07-11T18:30:00Z,28.8425,-94.2433,2.0,156.9642538,45.69351048,-99999.0,'11111222,11111222,99999999' 
TABS,ioos:station:wmo:42050:1,2001-07-11T19:00:00Z,28.8425,-94.2433,2.0,163.3801858,44.12326824,-99999.0,'11111222,11111222,99999999' 
TABS,ioos:station:wmo:42050:1,2001-07-11T19:30:00Z,28.8425,-94.2433,2.0,168.7710306,38.7721988,-99999.0,'11111222,11111222,99999999' 
TABS,ioos:station:wmo:42050:1,2001-07-11T20:00:00Z,28.8425,-94.2433,2.0,174.013417,38.4496775,-99999.0,'11111222,11111222,99999999' 
TABS,ioos:station:wmo:42050:1,2001-07-11T20:30:00Z,28.8425,-94.2433,2.0,187.7199184,34.39172575,-99999.0,'11111222,11111222,99999999' 
TABS,ioos:station:wmo:42050:1,2001-07-11T21:00:00Z,28.8425,-94.2433,2.0,190.6025676,29.23922024,-99999.0,'11111222,11111222,99999999' 
TABS,ioos:station:wmo:42050:1,2001-07-11T21:30:00Z,28.8425,-94.2433,2.0,198.9029307,26.70000187,-99999.0,'11111222,11111222,99999999' 
TABS,ioos:station:wmo:42050:1,2001-07-11T22:00:00Z,28.8425,-94.2433,2.0,206.6869039,27.27561915,-99999.0,'11111222,11111222,99999999' 
TABS,ioos:station:wmo:42050:1,2001-07-11T22:30:00Z,28.8425,-94.2433,2.0,212.6547675,25.33451795,-99999.0,'11111222,11111222,99999999' 
TABS,ioos:station:wmo:42050:1,2001-07-11T23:00:00Z,28.8425,-94.2433,2.0,223.5936024,22.18862096,-99999.0,'11111222,11111222,99999999' 
TABS,ioos:station:wmo:42050:1,2001-07-11T23:30:00Z,28.8425,-94.2433,2.0,225.669897,19.94884708,-99999.0,'11111222,11111222,99999999' 
TABS,ioos:station:wmo:42050:1,2001-07-12T00:00:00Z,28.8425,-94.2433,2.0,217.9954198,18.72961559,-99999.0,'11111222,11111222,99999999' 
TABS,ioos:station:wmo:42050:1,2001-07-12T00:30:00Z,28.8425,-94.2433,2.0,212.7231181,20.38535994,-99999.0,'11111222,11111222,99999999' 
TABS,ioos:station:wmo:42050:1,2001-07-12T01:00:00Z,28.8425,-94.2433,2.0,235.9996079,15.37928802,-99999.0,'11111222,11111222,99999999' 
TABS,ioos:station:wmo:42050:1,2001-07-12T01:30:00Z,28.8425,-94.2433,2.0,242.2047859,13.96075213,-99999.0,'11111222,11111222,99999999' 
TABS,ioos:station:wmo:42050:1,2001-07-12T02:00:00Z,28.8425,-94.2433,2.0,273.4436089,13.15374471,-99999.0,'11111222,11111222,99999999' 
TABS,ioos:station:wmo:42050:1,2001-07-12T02:30:00Z,28.8425,-94.2433,2.0,281.1718576,14.6067724,-99999.0,'11111222,11111222,99999999' 
TABS,ioos:station:wmo:42050:1,2001-07-12T03:00:00Z,28.8425,-94.2433,2.0,310.6817131,14.74260832,-99999.0,'11111222,11111222,99999999' 
TABS,ioos:station:wmo:42050:1,2001-07-12T03:30:00Z,28.8425,-94.2433,2.0,339.8481481,13.61339414,-99999.0,'11111222,11111222,99999999' 
TABS,ioos:station:wmo:42050:1,2001-07-12T04:00:00Z,28.8425,-94.2433,2.0,357.8630095,14.48007251,-99999.0,'11111222,11111222,99999999' 
TABS,ioos:station:wmo:42050:1,2001-07-12T04:30:00Z,28.8425,-94.2433,2.0,13.45341431,13.10972921,-99999.0,'11111222,11111222,99999999' 
TABS,ioos:station:wmo:42050:1,2001-07-12T05:00:00Z,28.8425,-94.2433,2.0,12.04946083,16.71833126,-99999.0,'11111222,11111222,99999999' 
TABS,ioos:station:wmo:42050:1,2001-07-12T05:30:00Z,28.8425,-94.2433,2.0,16.89425713,22.81459621,-99999.0,'11111222,11111222,99999999' 
TABS,ioos:station:wmo:42050:1,2001-07-12T06:00:00Z,28.8425,-94.2433,2.0,18.04591327,26.53528406,-99999.0,'11111222,11111222,99999999' 
TABS,ioos:station:wmo:42050:1,2001-07-12T06:30:00Z,28.8425,-94.2433,2.0,15.79200515,29.21257606,-99999.0,'11111222,11111222,99999999' 
TABS,ioos:station:wmo:42050:1,2001-07-12T07:00:00Z,28.8425,-94.2433,2.0,18.54291594,33.61507102,-99999.0,'11111222,11111222,99999999' 
TABS,ioos:station:wmo:42050:1,2001-07-12T07:30:00Z,28.8425,-94.2433,2.0,19.08226118,34.71769866,-99999.0,'11111222,11111222,99999999' 
TABS,ioos:station:wmo:42050:1,2001-07-12T08:00:00Z,28.8425,-94.2433,2.0,21.36529484,38.04450683,-99999.0,'11111222,11111222,99999999' 
TABS,ioos:station:wmo:42050:1,2001-07-12T08:30:00Z,28.8425,-94.2433,2.0,24.44172701,39.82936103,-99999.0,'11111222,11111222,99999999' 
TABS,ioos:station:wmo:42050:1,2001-07-12T09:00:00Z,28.8425,-94.2433,2.0,28.20380716,43.16481901,-99999.0,'11111222,11111222,99999999' 
TABS,ioos:station:wmo:42050:1,2001-07-12T09:30:00Z,28.8425,-94.2433,2.0,30.57889096,47.21634145,-99999.0,'11111222,11111222,99999999' 
TABS,ioos:station:wmo:42050:1,2001-07-12T10:00:00Z,28.8425,-94.2433,2.0,31.41249703,45.77952053,-99999.0,'11111222,11111222,99999999' 
TABS,ioos:station:wmo:42050:1,2001-07-12T10:30:00Z,28.8425,-94.2433,2.0,28.70558864,47.17817292,-99999.0,'11111222,11111222,99999999' 
TABS,ioos:station:wmo:42050:1,2001-07-12T11:00:00Z,28.8425,-94.2433,2.0,36.55964489,45.04266089,-99999.0,'11111222,11111222,99999999' 
TABS,ioos:station:wmo:42050:1,2001-07-12T11:30:00Z,28.8425,-94.2433,2.0,43.63037536,43.18828082,-99999.0,'11111222,11111222,99999999' 
TABS,ioos:station:wmo:42050:1,2001-07-12T12:00:00Z,28.8425,-94.2433,2.0,47.9784526,42.05187392,-99999.0,'11111222,11111222,99999999' 
TABS,ioos:station:wmo:42050:1,2001-07-12T12:30:00Z,28.8425,-94.2433,2.0,49.60933531,41.62055862,-99999.0,'11111222,11111222,99999999' 
TABS,ioos:station:wmo:42050:1,2001-07-12T13:00:00Z,28.8425,-94.2433,2.0,56.66373211,40.43286782,-99999.0,'11111222,11111222,99999999' 
TABS,ioos:station:wmo:42050:1,2001-07-12T13:30:00Z,28.8425,-94.2433,2.0,62.50498963,39.40023604,-99999.0,'11111222,11111222,99999999' 
TABS,ioos:station:wmo:42050:1,2001-07-12T14:00:00Z,28.8425,-94.2433,2.0,71.12462786,37.43298679,-99999.0,'11111222,11111222,99999999' 
TABS,ioos:station:wmo:42050:1,2001-07-12T14:30:00Z,28.8425,-94.2433,2.0,77.58564512,38.56163508,-99999.0,'11111222,11111222,99999999' 
TABS,ioos:station:wmo:42050:1,2001-07-12T15:00:00Z,28.8425,-94.2433,2.0,89.61842603,39.04086577,-99999.0,'11111222,11111222,99999999' 
TABS,ioos:station:wmo:42050:1,2001-07-12T15:30:00Z,28.8425,-94.2433,2.0,87.83008168,39.08802886,-99999.0,'11111222,11111222,99999999' 
TABS,ioos:station:wmo:42050:1,2001-07-12T16:00:00Z,28.8425,-94.2433,2.0,95.12222344,38.08208109,-99999.0,'11111222,11111222,99999999' 
TABS,ioos:station:wmo:42050:1,2001-07-12T16:30:00Z,28.8425,-94.2433,2.0,102.5676809,39.93690649,-99999.0,'11111222,11111222,99999999' 
TABS,ioos:station:wmo:42050:1,2001-07-12T17:00:00Z,28.8425,-94.2433,2.0,105.7015403,39.05745639,-99999.0,'11111222,11111222,99999999' 
TABS,ioos:station:wmo:42050:1,2001-07-12T17:30:00Z,28.8425,-94.2433,2.0,108.3599972,38.69998708,-99999.0,'11111222,11111222,99999999' 
TABS,ioos:station:wmo:42050:1,2001-07-12T18:00:00Z,28.8425,-94.2433,2.0,114.68208,40.01591808,-99999.0,'11111222,11111222,99999999' 